Springfield, MO

6:21 AM CST on November 21, 2017 (GMT -0600)
Springfield-Branson Regional

Weather History for KSGF - February, 2014

Change the Weather History Date:

Monday, February 17, 2014

  Actual Average Record
Temperature  
Mean Temperature 46 °F 38 °F  
Max Temperature 58 °F 49 °F 73 °F (1911)
Min Temperature 34 °F 27 °F -8 °F (1900)
Degree Days  
Heating Degree Days 19 27  
Month to date heating degree days 653 500  
Since 1 July heating degree days 3682 3313  
Cooling Degree Days 0 0  
Month to date cooling degree days 0 0  
Year to date cooling degree days 0 0  
Moisture  
Dew Point 29 °F    
Average Humidity 49    
Maximum Humidity 70    
Minimum Humidity 27    
Precipitation  
Precipitation 0.00 in 0.09 in 1.57 in (1938)
Month to date precipitation 0.34 1.42  
Year to date precipitation 1.63 3.89  
Snow  
Snow 0.00 in - - ()
Month to date snowfall 4.3  
Since 1 July snowfall 27.3  
Snow Depth 0.00 in    
Sea Level Pressure  
Sea Level Pressure 29.96 in    
Wind  
Wind Speed 17 mph (SW)    
Max Wind Speed 31 mph    
Max Gust Speed 40 mph    
Visibility 10 miles    
Events      
T = Trace of Precipitation, MM = Missing Value Source: NWS Daily Summary

Daily Weather History Graph

Daily Weather History Graph

Search for Another Location

Airport or City:

Trip Planner

Search our weather history database for the weather conditions in past years. The results will help you decide how hot, cold, wet, or windy it might be!

Date:

Astronomy

Feb. 17, 2014 Rise Set
Actual Time 7:00 AM CST 5:55 PM CST
Civil Twilight 6:33 AM CST 6:22 PM CST
Nautical Twilight 6:03 AM CST 6:52 PM CST
Astronomical Twilight 5:32 AM CST 7:22 PM CST
Moon 8:45 PM CST (2/17) 8:05 AM CST (2/17)
Length of Visible Light 11h 48m
Length of Day
10h 55m
Waning Gibbous, 93% of the Moon is Illuminated
Feb 17
Waning Gibbous
Feb 22
Last Quarter
Mar 1
New
Mar 8
First Quarter
Mar 16
Full

Hourly Weather History & Observations

Time (CST) Temp. Windchill Dew Point Humidity Pressure Visibility Wind Dir Wind Speed Gust Speed Precip Events Conditions
12:52 AM 43.0 °F 32.9 °F 30.9 °F 62% 29.91 in 10.0 mi SSE 27.6 mph 35.7 mph N/A   Overcast
1:52 AM 41.0 °F 30.5 °F 30.0 °F 65% 29.89 in 10.0 mi SSE 26.5 mph 33.4 mph N/A   Overcast
2:52 AM 41.0 °F 30.5 °F 28.9 °F 62% 29.87 in 10.0 mi SSE 26.5 mph - N/A   Overcast
3:52 AM 41.0 °F 31.6 °F 28.9 °F 62% 29.83 in 10.0 mi SE 20.7 mph 31.1 mph N/A   Overcast
4:52 AM 41.0 °F 30.9 °F 28.9 °F 62% 29.82 in 10.0 mi SE 24.2 mph 34.5 mph N/A   Overcast
5:52 AM 39.0 °F 28.0 °F 30.0 °F 70% 29.82 in 10.0 mi SSE 25.3 mph 33.4 mph N/A   Mostly Cloudy
6:52 AM 39.0 °F 28.3 °F 30.0 °F 70% 29.82 in 10.0 mi SSE 24.2 mph 29.9 mph N/A   Overcast
7:52 AM 39.0 °F 29.6 °F 30.0 °F 70% 29.83 in 9.0 mi SSE 18.4 mph - N/A   Overcast
8:00 AM 39.0 °F 30.3 °F 30.9 °F 73% 29.82 in 9.0 mi SSE 16.1 mph - N/A   Overcast
8:52 AM 41.0 °F 33.1 °F 32.0 °F 70% 29.85 in 9.0 mi South 15.0 mph - N/A   Overcast
9:52 AM 45.0 °F 38.9 °F 36.0 °F 71% 29.88 in 10.0 mi SW 12.7 mph - N/A   Overcast
10:16 AM 52.0 °F - 39.0 °F 61% 29.87 in 10.0 mi WNW 15.0 mph 24.2 mph N/A   Mostly Cloudy
10:17 AM 52.0 °F - 39.0 °F 61% 29.87 in 10.0 mi WNW 18.4 mph 24.2 mph N/A   Mostly Cloudy
10:28 AM 53.1 °F - 37.0 °F 55% 29.88 in 10.0 mi West 21.9 mph 27.6 mph N/A   Scattered Clouds
10:52 AM 53.1 °F - 35.1 °F 50% 29.91 in 10.0 mi WNW 23.0 mph 35.7 mph N/A   Clear
11:52 AM 52.0 °F - 35.1 °F 53% 29.99 in 10.0 mi NW 18.4 mph 34.5 mph N/A   Partly Cloudy
12:52 PM 54.0 °F - 30.0 °F 40% 30.01 in 10.0 mi NNW 20.7 mph 32.2 mph N/A   Clear
1:52 PM 55.0 °F - 28.0 °F 35% 30.02 in 10.0 mi NW 21.9 mph - N/A   Clear
2:52 PM 57.0 °F - 24.1 °F 28% 30.01 in 10.0 mi NW 19.6 mph 27.6 mph N/A   Clear
3:52 PM 55.9 °F - 23.0 °F 28% 30.03 in 10.0 mi WNW 16.1 mph 24.2 mph N/A   Clear
4:52 PM 55.0 °F - 25.0 °F 31% 30.06 in 10.0 mi NW 11.5 mph - N/A   Clear
5:52 PM 51.1 °F - 25.0 °F 36% 30.09 in 10.0 mi West 5.8 mph - N/A   Clear
6:52 PM 39.9 °F 36.7 °F 25.0 °F 55% 30.10 in 10.0 mi SW 4.6 mph - N/A   Clear
7:52 PM 39.0 °F 33.4 °F 25.0 °F 57% 30.11 in 10.0 mi SW 8.1 mph - N/A   Clear
8:52 PM 37.0 °F 31.6 °F 26.1 °F 65% 30.12 in 10.0 mi SSW 6.9 mph - N/A   Clear
9:52 PM 37.9 °F 32.7 °F 25.0 °F 60% 30.12 in 10.0 mi SSW 6.9 mph - N/A   Clear
10:52 PM 36.0 °F 30.3 °F 24.1 °F 62% 30.10 in 10.0 mi South 6.9 mph - N/A   Clear
11:52 PM 34.0 °F 27.2 °F 24.1 °F 67% 30.09 in 10.0 mi South 8.1 mph - N/A   Clear